Regional Weather Roundup
Issued by NWS

Home | Current Version | Previous Version | Graphics & Text | Print | Product List | Glossary On
Versions: 1 2 3 4 5 6 7 8 9 10 11 12 13 14 15 16 17 18 19 20 21 22 23 24 25 26 27 28 29 30 31 32 33 34 35 36 37 38 39 40 41 42 43 44 45 46 47 48 49 50
659
ASUS44 KJAN 171310
RWRMS

MISSISSIPPI HOURLY WEATHER ROUNDUP
NATIONAL WEATHER SERVICE JACKSON MS
800 AM CDT WED SEP 17 2014

NOTE: "FAIR: INDICATES FEW OR NO CLOUDS BELOW 12,000 FEET WITH NO
SIGNIFICANT WEATHER AND/OR OBSTRUCTIONS TO VISIBILITY.

MSZ001>002-007>008-010>013-018>021-025>028-034>036-171400-
NORTHWEST MISSISSIPPI

CITY           SKY/WX    TMP DP  RH WIND       PRES   REMARKS
CLARKSDALE     FAIR      64  64 100 CALM      30.02S
CLEVELAND      FAIR      68  67  96 NE6       30.00R
GREENWOOD      SUNNY     70  65  84 E6        29.99S
GREENVILLE     SUNNY     70  66  87 NE6       29.99R
GRENADA        FAIR      68  63  83 NE3       30.01S
OLIVE BRANCH   PTSUNNY   61  61 100 E7        30.02S
OXFORD         FAIR      63  59  88 E5        30.03S
TUNICA         SUNNY     64  63  94 CALM      30.02S
$$

MSZ003>006-009-014>017-022>024-029>033-037>039-171400-
NORTHEAST MISSISSIPPI

CITY           SKY/WX    TMP DP  RH WIND       PRES   REMARKS
COLUMBUS AFB   CLOUDY    67  67  98 NE3       30.00S
CORINTH        FAIR      61  59  94 N5        30.02F
GOLDN TRIANGLE CLOUDY    66  63  88 N6        30.01S FOG
STARKVILLE     FAIR      64  64 100 CALM      30.00S FOG
TUPELO         SUNNY     65  61  87 NE6       30.01S
$$

MSZ040-058-171400-
CENTRAL MISSISSIPPI

CITY           SKY/WX    TMP DP  RH WIND       PRES   REMARKS
JACKSON INTL   SUNNY     72  69  90 CALM      29.98R
JACKSON HAWKNS SUNNY     74  70  87 CALM      29.98S
MERIDIAN KEY   MOSUNNY   73  69  87 VRB7      29.99R
MERIDIAN NAS   CLOUDY    71  68  90 CALM      29.99S FOG
RAYMOND        FAIR      72  66  83 CALM      29.98S
VICKSBURG      MOSUNNY   71  70  96 CALM      29.98R
$$

MSZ059>079-171400-
SOUTH MISSISSIPPI

CITY           SKY/WX    TMP DP  RH WIND       PRES   REMARKS
BROOKHAVEN     PTSUNNY   72  72 100 CALM      30.00S FOG
HATTIESBURG    MOSUNNY   73  70  90 CALM      29.99R
MCCOMB         CLOUDY    72  70  93 N6        29.98S FOG
NATCHEZ        CLOUDY    72  70  94 CALM      29.99R
PINE BELT      MOSUNNY   72  68  88 CALM      30.00R
$$

MSZ080>082-171400-
COASTAL MISSISSIPPI

CITY           SKY/WX    TMP DP  RH WIND       PRES   REMARKS
BAY ST LOUIS   SUNNY    N/A N/A N/A CALM      29.98R FOG
BILOXI         PTSUNNY   73  71  93 NE3       29.97R
PASCAGOULA     PTSUNNY   73  71  93 CALM      29.97R
GULFPORT       PTSUNNY   73  71  93 CALM      29.96S
$$



USA.gov is the U.S. government's official web portal to all federal, state and local government web resources and services.